SRQ625 RPLL-RPVE

Flight info

Callsign SRQ625
Flight time N/A
Altitude 15000
Route RDVXVERDE/13 VERDE W24 TAPER TAPER7A
Aircraft AT76/M-SDFGIRY/S

Departure

Time N/A
Airport Ninoy Aquino International Airport (RPLL)

Arrival

Time 2026-05-06 15:46
Airport Godofredo P. Ramos Airport (RPVE)
Time Latitude Longitude Altitude Speed Heading
2026-05-06 15:07 14.04899 121.06976 14665 ft 211 kts 187°
2026-05-06 15:08 14.03918 121.06909 14827 ft 213 kts 187°
2026-05-06 15:08 14.01899 121.06759 14940 ft 224 kts 187°
2026-05-06 15:08 14.00305 121.06630 14974 ft 233 kts 187°
2026-05-06 15:08 13.98667 121.06493 14995 ft 241 kts 187°
2026-05-06 15:09 13.96960 121.06367 14994 ft 247 kts 187°
2026-05-06 15:09 13.95224 121.06246 15001 ft 252 kts 186°
2026-05-06 15:09 13.93478 121.06125 15005 ft 256 kts 186°
2026-05-06 15:09 13.91684 121.06000 15001 ft 258 kts 186°
2026-05-06 15:10 13.89879 121.05875 14998 ft 259 kts 186°
2026-05-06 15:10 13.88076 121.05751 14998 ft 260 kts 186°
2026-05-06 15:10 13.86267 121.05626 14999 ft 261 kts 186°
2026-05-06 15:10 13.84458 121.05500 15001 ft 262 kts 186°
2026-05-06 15:11 13.82629 121.05375 15000 ft 263 kts 186°
2026-05-06 15:11 13.80806 121.05247 15001 ft 263 kts 186°
2026-05-06 15:11 13.78984 121.05124 14998 ft 264 kts 186°
2026-05-06 15:11 13.77156 121.04996 14999 ft 264 kts 186°
2026-05-06 15:12 13.75308 121.04868 15001 ft 265 kts 186°
2026-05-06 15:12 13.73484 121.04742 14997 ft 265 kts 186°
2026-05-06 15:12 13.71632 121.04613 14998 ft 265 kts 186°
2026-05-06 15:12 13.69791 121.04488 14999 ft 265 kts 186°
2026-05-06 15:13 13.67967 121.04362 14999 ft 265 kts 186°
2026-05-06 15:13 13.66112 121.04233 15002 ft 265 kts 186°
2026-05-06 15:13 13.64273 121.04105 15002 ft 265 kts 186°
2026-05-06 15:13 13.62422 121.03980 15001 ft 266 kts 186°
2026-05-06 15:14 13.60589 121.03854 15001 ft 266 kts 186°
2026-05-06 15:14 13.58740 121.03725 15000 ft 266 kts 186°
2026-05-06 15:14 13.56897 121.03596 15000 ft 266 kts 186°
2026-05-06 15:14 13.55066 121.03470 14998 ft 266 kts 186°
2026-05-06 15:15 13.53209 121.03343 15002 ft 266 kts 186°
2026-05-06 15:15 13.51379 121.03220 14999 ft 265 kts 185°
2026-05-06 15:15 13.49573 121.03607 15000 ft 269 kts 156°
2026-05-06 15:15 13.47987 121.04654 15003 ft 269 kts 146°
2026-05-06 15:16 13.46492 121.05807 15003 ft 270 kts 145°
2026-05-06 15:16 13.45004 121.06960 15000 ft 271 kts 146°
2026-05-06 15:16 13.43463 121.08091 15000 ft 271 kts 147°
2026-05-06 15:16 13.41898 121.09188 15003 ft 272 kts 148°
2026-05-06 15:17 13.40317 121.10284 15001 ft 272 kts 148°
2026-05-06 15:17 13.38764 121.11370 14999 ft 273 kts 148°
2026-05-06 15:17 13.37192 121.12476 15003 ft 273 kts 148°
2026-05-06 15:17 13.35645 121.13576 14999 ft 273 kts 147°
2026-05-06 15:18 13.34072 121.14678 14999 ft 273 kts 148°
2026-05-06 15:18 13.32496 121.15775 15000 ft 273 kts 148°
2026-05-06 15:18 13.30938 121.16864 15000 ft 273 kts 148°
2026-05-06 15:18 13.29364 121.17969 15000 ft 273 kts 148°
2026-05-06 15:19 13.27791 121.19072 14999 ft 273 kts 148°
2026-05-06 15:19 13.26216 121.20178 15002 ft 273 kts 148°
2026-05-06 15:19 13.24651 121.21274 14999 ft 273 kts 148°
2026-05-06 15:19 13.23079 121.22377 15003 ft 273 kts 148°
2026-05-06 15:20 13.21513 121.23476 14999 ft 273 kts 148°
2026-05-06 15:20 13.19951 121.24572 15000 ft 273 kts 148°
2026-05-06 15:20 13.18386 121.25667 15000 ft 273 kts 148°
2026-05-06 15:20 13.16806 121.26774 14999 ft 273 kts 148°
2026-05-06 15:21 13.15244 121.27870 15002 ft 273 kts 148°
2026-05-06 15:21 13.13667 121.28974 14999 ft 273 kts 148°
2026-05-06 15:21 13.12111 121.30066 15001 ft 273 kts 148°
2026-05-06 15:21 13.10538 121.31169 15001 ft 273 kts 148°
2026-05-06 15:22 13.08954 121.32274 15004 ft 273 kts 148°
2026-05-06 15:22 13.07383 121.33377 14998 ft 273 kts 148°
2026-05-06 15:22 13.05828 121.34464 15001 ft 273 kts 148°
2026-05-06 15:22 13.04250 121.35569 15003 ft 273 kts 148°
2026-05-06 15:23 13.02678 121.36670 15002 ft 273 kts 148°
2026-05-06 15:23 13.01123 121.37759 15002 ft 273 kts 148°
2026-05-06 15:23 12.99540 121.38866 15003 ft 273 kts 148°
2026-05-06 15:23 12.97988 121.39951 15003 ft 273 kts 148°
2026-05-06 15:24 12.96405 121.41057 14999 ft 273 kts 148°
2026-05-06 15:24 12.94847 121.42148 15003 ft 273 kts 148°
2026-05-06 15:24 12.93289 121.43238 14999 ft 273 kts 148°
2026-05-06 15:24 12.91711 121.44340 15001 ft 273 kts 148°
2026-05-06 15:25 12.90136 121.45443 14998 ft 273 kts 148°
2026-05-06 15:25 12.88575 121.46531 14998 ft 273 kts 148°
2026-05-06 15:25 12.87017 121.47621 15003 ft 273 kts 148°
2026-05-06 15:25 12.85438 121.48728 15001 ft 273 kts 148°
2026-05-06 15:26 12.83880 121.49810 15000 ft 273 kts 148°
2026-05-06 15:26 12.82299 121.50915 14999 ft 273 kts 148°
2026-05-06 15:26 12.80740 121.52004 15001 ft 273 kts 148°
2026-05-06 15:26 12.79168 121.53102 15004 ft 273 kts 148°
2026-05-06 15:27 12.77592 121.54205 15000 ft 273 kts 148°
2026-05-06 15:27 12.76016 121.55303 15001 ft 273 kts 148°
2026-05-06 15:27 12.74456 121.56392 14999 ft 273 kts 148°
2026-05-06 15:27 12.72877 121.57495 15002 ft 273 kts 148°
2026-05-06 15:28 12.71324 121.58578 15001 ft 273 kts 148°
2026-05-06 15:28 12.69756 121.59673 14999 ft 273 kts 148°
2026-05-06 15:28 12.68170 121.60778 15001 ft 273 kts 148°
2026-05-06 15:28 12.66598 121.61876 15001 ft 273 kts 148°
2026-05-06 15:29 12.65044 121.62959 15002 ft 273 kts 148°
2026-05-06 15:29 12.63456 121.64066 14999 ft 273 kts 148°
2026-05-06 15:29 12.61902 121.65151 15004 ft 273 kts 148°
2026-05-06 15:29 12.60320 121.66254 14999 ft 273 kts 148°
2026-05-06 15:30 12.58766 121.67335 14999 ft 273 kts 148°
2026-05-06 15:30 12.57186 121.68437 14999 ft 273 kts 148°
2026-05-06 15:30 12.55601 121.69542 14999 ft 273 kts 148°
2026-05-06 15:30 12.54039 121.70629 15001 ft 273 kts 148°
2026-05-06 15:31 12.52482 121.71712 14999 ft 273 kts 148°
2026-05-06 15:31 12.50902 121.72813 14999 ft 273 kts 148°
2026-05-06 15:31 12.49328 121.73909 15001 ft 273 kts 148°
2026-05-06 15:32 12.46187 121.76096 14999 ft 273 kts 148°
2026-05-06 15:32 12.44635 121.77176 14999 ft 273 kts 148°
2026-05-06 15:32 12.43052 121.78280 14999 ft 273 kts 148°
2026-05-06 15:32 12.41458 121.79385 14788 ft 281 kts 148°
2026-05-06 15:33 12.39827 121.80518 14434 ft 292 kts 148°
2026-05-06 15:33 12.38109 121.81695 14057 ft 296 kts 151°
2026-05-06 15:33 12.36187 121.82307 13689 ft 295 kts 177°
2026-05-06 15:33 12.34122 121.82304 13318 ft 297 kts 188°
2026-05-06 15:34 12.32113 121.81919 12947 ft 289 kts 195°
2026-05-06 15:34 12.30199 121.81426 12589 ft 283 kts 197°
2026-05-06 15:34 12.28286 121.80934 12230 ft 279 kts 196°
2026-05-06 15:34 12.26400 121.80501 11878 ft 276 kts 194°
2026-05-06 15:35 12.24538 121.80107 11537 ft 273 kts 194°
2026-05-06 15:35 12.22694 121.79710 11192 ft 271 kts 194°
2026-05-06 15:35 12.20850 121.79311 10860 ft 270 kts 194°
2026-05-06 15:35 12.19004 121.78910 10519 ft 270 kts 194°
2026-05-06 15:36 12.17173 121.78515 10184 ft 269 kts 194°
2026-05-06 15:36 12.15341 121.78119 9849 ft 268 kts 194°
2026-05-06 15:36 12.13525 121.77726 9518 ft 268 kts 194°
2026-05-06 15:36 12.11690 121.77327 9182 ft 267 kts 194°
2026-05-06 15:37 12.09882 121.76935 8852 ft 268 kts 194°
2026-05-06 15:37 12.08071 121.76543 8521 ft 267 kts 194°
2026-05-06 15:37 12.06237 121.76146 8180 ft 267 kts 194°
2026-05-06 15:37 12.04434 121.75754 7852 ft 267 kts 194°
2026-05-06 15:38 12.02604 121.75360 7516 ft 266 kts 194°
2026-05-06 15:38 12.00844 121.74979 7193 ft 255 kts 194°
2026-05-06 15:38 11.99134 121.74608 6878 ft 245 kts 195°
2026-05-06 15:38 11.97507 121.74258 6579 ft 236 kts 195°
2026-05-06 15:39 11.95911 121.73913 6286 ft 229 kts 195°
2026-05-06 15:39 11.94382 121.73581 6002 ft 223 kts 195°
2026-05-06 15:39 11.92875 121.73253 5731 ft 218 kts 195°
2026-05-06 15:39 11.91420 121.72962 5463 ft 212 kts 188°
2026-05-06 15:40 11.90005 121.73288 5202 ft 200 kts 157°
2026-05-06 15:40 11.88780 121.73948 4962 ft 200 kts 153°
2026-05-06 15:40 11.87578 121.74644 4718 ft 201 kts 153°
2026-05-06 15:40 11.86350 121.75342 4469 ft 198 kts 154°
2026-05-06 15:41 11.85181 121.76005 4196 ft 185 kts 151°
2026-05-06 15:41 11.84401 121.77031 3920 ft 194 kts 106°
2026-05-06 15:41 11.84394 121.78418 3651 ft 197 kts 81°
2026-05-06 15:41 11.84690 121.79736 3392 ft 184 kts 72°
2026-05-06 15:42 11.85129 121.80927 3139 ft 176 kts 64°
2026-05-06 15:42 11.85475 121.81674 2977 ft 174 kts 61°
2026-05-06 15:42 11.86201 121.83082 2663 ft 158 kts 59°
2026-05-06 15:42 11.86685 121.84015 2498 ft 141 kts 59°
2026-05-06 15:43 11.87110 121.84833 2348 ft 121 kts 60°
2026-05-06 15:43 11.87491 121.85576 2173 ft 124 kts 58°
2026-05-06 15:43 11.87909 121.86373 2029 ft 130 kts 58°
2026-05-06 15:43 11.88352 121.87200 1845 ft 133 kts 59°
2026-05-06 15:44 11.88785 121.88035 1664 ft 134 kts 60°
2026-05-06 15:44 11.89215 121.88886 1476 ft 135 kts 59°
2026-05-06 15:44 11.89639 121.89738 1283 ft 134 kts 60°
2026-05-06 15:44 11.90060 121.90585 1079 ft 131 kts 60°
2026-05-06 15:45 11.90454 121.91400 881 ft 127 kts 60°
2026-05-06 15:45 11.90850 121.92198 693 ft 125 kts 60°
2026-05-06 15:45 11.91237 121.92979 508 ft 122 kts 61°
2026-05-06 15:45 11.91619 121.93737 361 ft 118 kts 61°
2026-05-06 15:46 11.91988 121.94476 213 ft 118 kts 59°
2026-05-06 15:46 11.92375 121.95232 39 ft 118 kts 60°
2026-05-06 15:46 11.92715 121.95898 27 ft 87 kts 63°
2026-05-06 15:46 11.92799 121.96085 27 ft 8 kts 66°
2026-05-06 15:47 11.92784 121.96126 27 ft 8 kts 138°
2026-05-06 15:47 11.92709 121.96168 27 ft 11 kts 152°
2026-05-06 15:47 11.92647 121.96208 27 ft 10 kts 125°
2026-05-06 15:47 11.92646 121.96241 27 ft 7 kts 72°
2026-05-06 15:48 11.92635 121.96265 27 ft 4 kts 155°
2026-05-06 15:48 11.92611 121.96277 27 ft 7 kts 154°
2026-05-06 15:48 11.92597 121.96284 27 ft 0 kts 154°